Wind_Speed
60 62 64 63 62 60 57 57 58 56 53 53 49 46 40 42 39 35 32 33 31 29 30 34 36 32 32 37 38 40 42 43 43 43 41 41 42 45 45 44 46 48 49 49
61 62 61 60 61 60 57 56 59 57 56 57 53 50 47 46 41 39 40 38 34 35 36 37 36 35 40 41 44 47 48 47 47 47 46 44 45 48 49 50 49 49 50 52
56 57 55 56 56 57 56 55 57 58 56 58 58 55 50 48 49 47 43 40 40 41 41 40 39 42 44 46 48 51 50 51 51 50 50 50 50 50 51 53 53 52 52 53
58 57 54 55 55 55 56 52 53 55 58 60 59 61 56 54 52 51 49 46 46 46 45 44 46 47 47 49 53 54 54 55 55 54 53 52 52 53 54 54 54 53 53 55
57 55 54 53 51 51 52 52 54 55 58 59 60 64 58 57 55 53 50 51 51 51 51 50 50 52 52 55 58 59 58 58 56 55 54 54 55 55 54 54 54 55 56 58
60 61 57 54 56 56 55 53 54 57 58 64 61 62 63 58 55 54 54 54 54 54 54 54 55 57 57 60 61 60 59 56 55 55 56 57 57 56 55 55 57 57 58 60
61 61 62 58 58 57 58 58 58 61 63 64 59 62 61 58 58 57 55 55 56 58 58 59 61 60 60 62 63 61 58 57 56 57 58 57 56 56 56 56 57 59 61 62
60 60 63 65 59 59 57 57 59 59 62 63 60 65 62 58 58 60 59 59 60 60 60 60 61 63 67 63 60 60 59 59 58 58 57 58 58 57 57 58 60 61 62 64
62 60 61 59 57 55 57 61 55 56 60 65 66 67 67 63 65 64 63 61 62 61 60 63 66 67 63 60 59 59 57 56 58 61 60 58 58 59 59 61 62 62 64 64
61 62 62 59 62 58 55 53 54 58 61 61 66 64 66 67 67 67 67 66 66 66 66 68 68 62 59 58 56 56 57 59 59 58 56 58 58 60 59 60 59 61 62 62
58 59 60 63 65 64 66 60 56 53 54 57 67 71 70 69 71 71 70 70 67 67 66 63 62 64 62 61 59 59 58 56 55 56 56 58 59 59 58 57 58 59 55 54
53 55 58 59 59 57 59 60 62 65 68 68 68 73 61 63 65 67 67 66 64 62 59 59 60 62 63 60 58 58 57 55 54 56 56 57 55 52 52 54 54 55 55 54
46 52 54 57 59 63 65 63 63 63 63 64 68 70 57 63 63 62 62 62 59 61 61 61 61 60 58 58 58 56 54 54 54 54 52 45 47 50 49 49 49 46 47 52
45 49 53 57 54 54 56 56 57 55 55 54 59 67 60 62 58 57 58 58 61 63 62 62 59 58 57 57 56 54 55 56 55 53 50 46 45 47 46 48 46 46 50 51
45 48 51 54 54 53 58 61 56 55 56 61 62 60 60 57 56 59 60 61 60 57 56 54 55 56 56 55 56 56 56 54 52 51 49 48 47 48 50 51 52 50 52 50
55 56 54 52 49 52 56 57 59 63 63 64 65 66 60 55 56 56 56 61 59 58 57 58 60 59 57 57 55 55 53 51 50 49 49 49 49 52 52 53 56 56 55 53
47 48 50 53 50 54 59 53 55 57 60 59 61 55 53 55 51 53 57 60 64 62 59 59 59 58 57 54 53 53 53 52 50 50 50 50 49 49 52 53 54 51 50 53
49 50 50 51 49 61 51 45 50 53 53 54 53 46 42 44 47 52 57 62 62 61 60 58 54 52 51 49 49 50 51 51 51 52 52 52 52 52 53 53 52 51 54 54
47 50 52 53 52 54 53 45 47 49 49 49 53 48 43 41 48 56 53 55 54 49 52 49 50 51 48 50 51 51 51 49 48 49 51 52 52 50 51 51 49 52 53 53
40 44 51 53 54 55 41 29 37 48 60 42 46 49 49 48 53 51 43 48 48 45 43 45 46 47 50 49 46 47 47 47 48 48 47 48 49 51 54 48 51 53 53 54
52 53 56 57 59 62 42 38 42 59 39 38 46 48 42 43 41 38 39 41 42 40 39 38 41 44 43 45 45 43 43 45 47 49 50 47 46 57 53 50 52 54 55 57
60 62 59 65 67 66 55 56 54 48 52 49 46 54 59 55 50 42 42 41 38 36 39 42 43 45 48 49 50 50 50 47 50 51 48 46 53 57 58 55 57 58 58 59
67 66 63 65 68 66 64 65 64 69 69 68 65 66 62 53 52 51 56 54 50 45 44 44 49 48 49 49 50 52 55 55 52 52 50 52 55 62 62 57 58 61 61 61
60 63 70 70 74 73 71 71 72 75 77 75 74 75 71 59 59 58 62 59 58 62 61 59 54 55 55 54 55 57 57 56 53 53 54 55 57 59 59 60 62 63 62 63
52 54 59 62 62 60 60 63 70 75 74 77 76 73 76 62 63 61 61 60 59 55 58 63 60 57 59 60 60 57 54 54 54 56 57 58 59 60 60 61 62 63 63 64
42 43 48 56 52 54 53 55 54 54 57 67 74 74 67 60 66 69 63 62 57 56 59 63 64 63 62 60 62 59 55 56 56 57 58 60 60 61 61 62 62 63 63 65
Wind_Direction
244 244 245 248 250 250 250 248 243 242 243 236 235 236 229 238 240 242 242 248 250 253 254 265 273 285 286 282 288 286 282 279 279 279 281 281 283 285 286 285 285 286 288 288
241 245 245 247 247 248 246 245 244 244 242 242 238 236 235 238 243 244 244 248 253 258 260 264 277 282 279 286 289 289 288 284 281 281 282 281 281 284 286 287 287 286 285 286
240 242 242 243 245 246 245 244 246 246 246 244 243 239 237 238 242 244 247 250 252 256 261 267 273 275 279 284 289 288 286 285 283 282 281 281 284 285 286 287 287 287 286 285
236 239 239 240 241 243 244 244 245 246 247 245 247 244 241 241 243 248 250 253 256 259 264 269 271 276 280 285 289 288 285 283 281 279 281 282 284 285 287 288 287 286 285 285
239 239 243 240 242 245 246 246 245 245 247 248 246 249 242 244 245 247 252 254 257 262 265 270 274 278 279 282 285 284 282 281 281 282 283 283 285 287 287 286 285 285 285 286
236 237 240 241 241 242 243 245 246 247 247 247 246 250 247 246 252 253 256 258 260 262 265 270 272 275 276 281 284 284 282 280 280 282 283 284 286 287 287 287 286 286 288 287
240 240 239 243 244 244 246 246 247 248 249 251 253 252 256 256 256 258 258 260 265 266 267 269 271 274 277 281 280 279 278 280 280 282 284 286 286 287 287 286 286 287 286 286
240 242 243 242 248 249 248 251 252 256 257 256 254 253 252 259 261 264 266 265 267 269 270 271 273 276 281 280 276 276 278 281 283 286 286 286 287 288 288 286 285 285 285 283
245 246 247 246 249 249 249 249 255 256 256 258 256 255 256 258 263 262 264 267 268 268 271 275 278 278 277 277 277 277 279 281 283 285 287 289 290 289 288 286 287 287 285 283
246 246 246 249 247 249 250 250 249 250 251 253 257 257 258 259 259 260 263 264 267 271 274 275 277 276 276 276 277 279 281 282 283 285 286 286 287 284 285 286 283 281 280 278
246 248 250 252 251 251 252 254 255 255 255 259 258 258 260 261 264 265 268 269 271 275 276 275 275 277 279 280 281 282 282 283 284 284 285 286 285 285 285 283 280 278 276 275
256 254 254 256 258 255 255 253 252 254 256 256 260 258 261 264 269 271 271 272 273 274 274 274 274 274 278 283 283 284 285 286 286 287 286 285 285 280 276 273 273 273 273 275
247 249 252 252 252 252 253 257 260 262 262 262 264 260 261 265 267 271 275 275 276 274 273 273 276 278 280 279 281 282 284 284 283 283 283 276 270 270 269 270 274 279 282 281
247 251 253 255 259 260 258 257 258 257 255 261 262 269 264 270 271 269 269 271 271 273 276 277 277 277 278 276 276 279 280 280 281 282 278 274 269 270 273 276 278 281 283 282
258 259 259 256 254 254 258 256 252 250 255 256 266 262 268 267 267 267 268 270 272 274 275 274 271 270 271 274 277 277 278 278 279 278 278 276 273 274 275 277 279 277 275 279
259 264 258 252 247 250 251 252 257 258 258 256 263 263 268 266 266 267 268 270 270 267 266 266 268 271 274 276 276 276 277 277 277 276 276 276 275 276 270 272 274 273 276 279
252 253 254 250 251 249 248 246 253 259 260 261 260 268 261 259 262 265 266 264 265 267 267 266 269 270 271 271 274 274 273 273 274 274 274 274 274 274 274 274 274 278 280 286
245 249 251 253 246 250 249 246 253 254 255 260 263 261 259 262 256 257 255 263 265 265 266 270 270 269 270 272 269 269 271 274 274 273 273 273 274 275 275 278 281 284 285 286
249 252 256 255 257 262 257 253 255 257 255 259 261 264 267 255 258 251 254 260 267 270 267 266 265 267 268 266 265 270 274 276 278 277 276 278 277 277 279 277 280 287 287 290
255 256 250 255 261 263 260 255 259 259 264 258 259 260 263 263 267 264 260 261 263 264 266 267 267 265 264 265 266 268 269 271 274 275 276 277 276 282 274 281 288 286 289 291
263 260 257 253 261 264 262 265 262 260 270 250 257 261 256 256 266 267 267 264 257 257 258 262 262 263 262 262 263 265 271 275 276 275 273 276 269 280 266 285 286 287 288 287
261 260 264 258 261 261 268 258 256 261 259 263 260 261 262 264 261 263 261 248 244 250 253 254 257 259 260 261 265 268 272 278 278 275 272 273 271 258 266 284 284 286 286 287
261 263 264 261 263 263 260 258 257 260 260 263 265 260 256 259 262 270 266 254 260 255 252 259 262 263 265 268 269 270 270 275 279 275 272 266 270 265 284 284 285 286 287 287
261 260 259 259 258 262 261 259 256 256 259 261 259 257 258 261 267 272 270 264 261 259 263 266 271 270 268 270 273 273 272 273 273 273 272 271 272 275 280 283 284 285 285 285
268 261 262 263 261 263 264 266 264 260 259 259 257 256 253 265 268 271 271 272 264 264 267 270 273 272 272 274 270 271 273 271 270 269 271 273 275 277 278 280 282 283 283 283
273 271 263 264 267 265 267 263 262 262 263 262 259 257 259 261 267 272 272 271 266 266 267 269 267 267 268 266 268 271 271 270 270 269 270 271 273 274 277 279 281 281 282 283
Height
5744 5749 5754 5762 5767 5772 5777 5779 5782 5788 5792 5792 5797 5802 5811 5811 5814 5819 5823 5824 5827 5829 5829 5826 5825 5831 5832 5829 5830 5830 5829 5827 5825 5825 5824 5823 5821 5818 5816 5816 5813 5811 5808 5804
5735 5741 5748 5752 5757 5761 5766 5769 5772 5778 5781 5783 5789 5793 5800 5803 5808 5812 5812 5815 5819 5819 5820 5819 5821 5823 5821 5821 5820 5819 5819 5818 5816 5815 5814 5814 5812 5810 5807 5804 5804 5802 5800 5796
5725 5733 5738 5741 5747 5751 5757 5760 5763 5768 5772 5774 5777 5782 5790 5797 5796 5798 5804 5808 5809 5809 5810 5811 5814 5813 5813 5813 5812 5811 5809 5808 5806 5805 5803 5801 5801 5799 5797 5795 5793 5791 5788 5785
5713 5722 5727 5731 5735 5740 5744 5750 5753 5756 5759 5763 5765 5768 5778 5784 5790 5791 5795 5798 5799 5800 5800 5804 5804 5804 5803 5802 5801 5799 5798 5796 5795 5794 5793 5792 5790 5787 5786 5784 5781 5779 5777 5773
5710 5715 5718 5725 5730 5733 5737 5740 5742 5745 5746 5748 5755 5756 5769 5772 5778 5783 5787 5788 5790 5790 5792 5793 5792 5792 5791 5789 5788 5787 5785 5785 5784 5783 5781 5779 5777 5775 5772 5770 5768 5766 5764 5761
5695 5700 5706 5715 5717 5721 5724 5728 5730 5731 5731 5733 5746 5746 5754 5764 5770 5773 5775 5777 5780 5781 5781 5781 5780 5779 5778 5776 5774 5774 5773 5772 5772 5771 5769 5767 5764 5762 5760 5757 5754 5752 5750 5746
5688 5692 5699 5703 5708 5713 5715 5717 5718 5716 5720 5725 5737 5736 5748 5752 5756 5760 5766 5769 5768 5767 5768 5768 5767 5766 5766 5764 5762 5761 5761 5760 5759 5758 5756 5754 5752 5749 5746 5744 5740 5738 5734 5730
5674 5681 5688 5697 5698 5703 5707 5708 5709 5711 5711 5715 5721 5722 5733 5741 5744 5746 5750 5751 5753 5755 5755 5753 5754 5753 5752 5750 5749 5747 5747 5746 5746 5744 5743 5740 5737 5734 5732 5729 5725 5721 5718 5714
5668 5671 5677 5684 5687 5691 5694 5692 5704 5699 5701 5698 5705 5716 5719 5731 5731 5734 5736 5738 5738 5740 5740 5739 5738 5737 5736 5736 5734 5734 5733 5732 5731 5729 5727 5725 5722 5719 5716 5712 5708 5704 5701 5697
5651 5657 5664 5668 5673 5677 5679 5686 5684 5684 5686 5686 5694 5702 5712 5717 5719 5719 5720 5722 5724 5726 5726 5725 5722 5720 5719 5719 5720 5720 5720 5717 5716 5715 5713 5710 5707 5704 5700 5697 5692 5689 5686 5684
5642 5645 5651 5653 5660 5668 5671 5671 5673 5675 5677 5678 5683 5689 5703 5707 5701 5705 5708 5708 5711 5711 5709 5710 5707 5703 5703 5703 5704 5704 5702 5702 5701 5700 5698 5694 5691 5687 5683 5680 5678 5675 5673 5670
5636 5634 5638 5646 5650 5653 5652 5656 5659 5659 5666 5665 5666 5670 5696 5693 5688 5689 5692 5694 5695 5694 5693 5693 5692 5689 5688 5687 5686 5686 5686 5685 5684 5682 5680 5677 5674 5671 5669 5667 5665 5662 5660 5658
5624 5621 5625 5630 5635 5638 5637 5645 5647 5649 5648 5647 5650 5666 5689 5672 5675 5676 5675 5676 5675 5676 5677 5675 5674 5675 5675 5673 5672 5670 5670 5669 5667 5665 5663 5661 5660 5658 5657 5654 5652 5650 5648 5646
5610 5612 5614 5618 5630 5626 5627 5633 5635 5636 5634 5639 5637 5652 5667 5660 5663 5662 5659 5660 5659 5660 5661 5659 5660 5659 5660 5658 5658 5658 5657 5654 5651 5650 5649 5648 5648 5646 5644 5642 5640 5638 5637 5634
5597 5603 5606 5611 5614 5613 5614 5616 5619 5618 5626 5621 5635 5632 5651 5656 5649 5641 5641 5644 5644 5646 5646 5645 5643 5643 5644 5645 5645 5643 5641 5639 5638 5636 5635 5635 5634 5632 5631 5629 5627 5625 5623 5620
5586 5592 5594 5598 5604 5602 5601 5603 5604 5609 5613 5608 5615 5616 5638 5638 5633 5631 5630 5624 5629 5632 5631 5628 5627 5629 5632 5631 5628 5627 5626 5625 5624 5623 5622 5621 5620 5619 5617 5615 5613 5611 5609 5607
5577 5580 5582 5582 5593 5587 5581 5595 5597 5595 5594 5602 5598 5612 5617 5616 5623 5621 5615 5606 5609 5613 5615 5613 5616 5617 5616 5616 5614 5613 5612 5610 5610 5610 5609 5607 5606 5604 5602 5601 5599 5597 5595 5593
5568 5570 5571 5571 5576 5561 5577 5587 5584 5584 5586 5587 5587 5595 5603 5605 5605 5601 5599 5592 5594 5598 5600 5600 5600 5600 5601 5602 5599 5598 5597 5597 5597 5596 5595 5594 5592 5591 5589 5587 5585 5584 5581 5578
5562 5560 5559 5558 5558 5560 5564 5578 5578 5573 5572 5577 5575 5582 5588 5588 5582 5578 5587 5586 5579 5581 5583 5584 5583 5585 5587 5585 5584 5585 5585 5585 5584 5583 5582 5581 5580 5578 5576 5574 5572 5569 5567 5564
5550 5549 5548 5547 5543 5542 5559 5568 5564 5558 5546 5573 5571 5567 5570 5573 5562 5567 5577 5569 5568 5567 5569 5571 5572 5572 5571 5571 5572 5572 5572 5572 5571 5570 5568 5567 5565 5564 5563 5561 5558 5555 5552 5549
5537 5536 5534 5535 5530 5528 5551 5557 5551 5541 5554 5559 5555 5556 5557 5553 5553 5555 5554 5557 5556 5557 5558 5559 5559 5559 5559 5559 5559 5560 5559 5558 5557 5555 5554 5553 5553 5549 5548 5546 5543 5540 5537 5535
5523 5522 5521 5522 5516 5513 5543 5537 5537 5541 5539 5543 5547 5543 5542 5543 5544 5541 5542 5542 5541 5542 5544 5546 5546 5546 5545 5545 5546 5546 5545 5544 5542 5541 5541 5540 5538 5533 5533 5531 5529 5526 5523 5520
5502 5507 5509 5505 5503 5510 5516 5517 5521 5518 5519 5523 5528 5530 5526 5525 5525 5527 5531 5532 5530 5530 5530 5531 5532 5531 5531 5531 5531 5531 5531 5529 5528 5526 5526 5525 5523 5521 5518 5516 5514 5511 5507 5503
5489 5491 5482 5484 5484 5489 5492 5495 5498 5501 5499 5502 5506 5510 5511 5509 5509 5511 5513 5514 5516 5518 5516 5516 5516 5516 5516 5516 5516 5516 5514 5513 5513 5511 5510 5509 5508 5506 5503 5501 5498 5494 5491 5488
5467 5471 5470 5466 5469 5473 5475 5478 5476 5476 5477 5479 5484 5487 5492 5493 5493 5495 5498 5498 5499 5501 5502 5502 5502 5502 5501 5501 5500 5499 5499 5498 5497 5496 5495 5493 5491 5489 5487 5485 5482 5477 5474 5471
5453 5454 5451 5449 5455 5452 5456 5458 5456 5457 5458 5460 5464 5469 5472 5476 5477 5480 5481 5483 5483 5483 5484 5485 5486 5485 5484 5484 5483 5483 5483 5482 5481 5480 5478 5477 5475 5473 5470 5467 5464 5460 5456 5453